Temperature
17 17 17 16 16 16 16 16 16 15 15 15 15 15 15 15 15 14 14 14 14 14 14 14 14 13 13 13 13 13 13 12 12 12 12 11 11 11
16 16 16 16 16 16 16 16 15 15 15 15 15 15 14 14 14 14 14 14 14 14 14 13 13 13 13 13 12 12 12 12 12 11 11 11 11 10
16 16 16 16 16 16 16 16 15 15 15 14 14 14 14 14 14 14 13 13 13 13 13 13 13 12 12 12 12 12 12 11 11 11 11 10 10 10
16 16 16 16 16 16 16 15 15 15 15 14 14 14 13 13 13 13 13 13 13 12 12 12 12 12 12 12 11 11 11 11 10 10 10 10 9 9
16 16 16 15 15 15 15 15 15 15 14 14 14 13 13 13 13 13 12 12 12 12 12 12 11 11 11 11 11 10 10 10 10 10 9 9 9 8
15 15 15 15 15 15 15 15 14 14 14 14 14 13 13 12 12 12 12 12 11 11 11 11 11 11 10 10 10 10 10 9 9 9 9 8 8 8
15 15 15 15 15 14 14 14 14 14 14 13 13 13 12 12 12 11 11 11 10 10 10 10 10 10 9 9 9 9 9 9 8 8 8 8 7 7
15 14 14 14 14 14 14 14 14 14 13 13 13 12 12 12 11 11 11 10 10 9 9 9 9 9 9 8 8 8 8 8 8 8 7 7 7 7
14 14 14 14 14 14 14 13 13 13 13 13 13 12 12 12 11 11 10 10 10 9 9 9 8 8 8 8 8 8 8 8 7 7 7 7 7 6
14 14 13 13 13 13 13 13 13 13 12 12 12 12 12 11 11 11 10 10 9 9 9 8 8 8 8 8 8 7 7 7 7 7 7 7 6 6
13 13 13 13 13 13 12 12 12 12 12 12 11 11 11 11 10 10 10 9 9 8 8 8 8 8 8 7 7 7 7 7 7 7 6 6 6 6
13 13 12 12 12 12 12 12 12 12 11 11 11 11 10 10 10 10 10 9 9 8 8 8 8 8 7 7 7 7 7 6 6 6 6 6 6 6
13 12 12 12 12 12 12 11 11 11 11 11 10 10 10 10 9 9 9 9 9 9 8 8 8 8 7 7 7 7 6 6 6 6 6 6 6 6
12 12 12 12 11 11 11 11 10 10 10 10 10 10 9 9 9 9 9 8 8 8 8 8 8 8 7 7 7 7 7 6 6 6 6 6 6 5
12 11 11 11 11 11 10 10 10 10 10 9 9 9 9 8 8 8 8 8 8 8 8 7 7 7 7 7 7 7 7 6 6 6 6 6 5 5
11 11 11 10 10 10 10 9 9 9 9 9 8 8 8 8 8 8 8 8 7 7 7 7 7 7 7 7 7 7 6 6 6 6 6 6 5 5
11 10 10 10 10 10 9 9 9 8 8 8 8 8 8 7 7 7 7 7 7 7 7 7 7 7 6 6 6 6 6 6 6 6 6 6 6 5
10 10 10 10 9 9 9 9 8 8 8 7 7 7 7 7 7 7 7 7 7 7 6 6 6 6 6 6 6 6 6 6 6 6 5 6 6 6
10 10 9 9 9 9 8 8 8 8 7 7 7 7 7 7 7 7 7 6 6 6 6 6 6 6 6 6 6 6 6 6 6 5 5 5 6 6
10 9 9 9 8 8 8 8 7 7 7 7 7 7 7 7 7 7 6 6 6 6 6 6 6 6 6 6 6 6 6 6 6 6 6 5 5 6
9 9 8 8 8 8 8 7 7 7 7 7 6 6 7 6 6 6 6 6 6 6 6 6 6 6 6 6 6 6 6 6 6 6 5 5 5 5
9 9 8 8 8 8 7 7 7 7 6 6 6 6 6 6 6 6 6 6 6 6 6 6 6 6 6 6 6 6 6 6 5 5 5 5 5 5
8 8 8 8 7 7 7 7 6 6 6 6 6 6 6 6 6 6 6 6 6 6 6 6 6 6 6 6 5 5 5 5 5 5 5 5 5 5
Wind_Speed
4 4 3 3 3 4 4 5 5 4 3 2 1 1 2 3 3 4 4 5 6 7 7 7 7 7 8 8 8 9 9 9 8 8 7 7 7 7
3 3 3 3 3 4 4 4 4 4 3 2 2 1 3 4 5 5 6 7 8 8 8 9 8 8 8 9 9 9 9 9 8 8 8 8 8 8
2 3 3 3 3 3 3 3 4 4 4 1 1 2 2 3 4 6 7 7 8 8 8 8 8 8 8 8 8 9 9 8 8 9 9 9 9 9
1 2 2 2 2 2 2 3 3 3 4 4 2 2 2 4 5 6 6 7 8 10 9 9 8 8 8 7 7 7 8 8 8 9 9 9 9 9
1 1 1 1 1 1 2 2 2 3 3 4 3 2 2 3 4 5 6 6 7 8 9 10 9 9 8 7 7 7 7 8 8 9 9 9 9 8
0 0 0 0 1 1 1 2 3 4 4 4 4 3 2 3 4 4 4 3 3 5 8 8 9 9 9 8 8 8 9 10 10 10 9 9 8 7
2 2 2 2 1 1 1 2 4 4 4 4 4 3 3 4 4 3 4 4 3 3 4 5 5 6 6 7 8 8 9 9 8 8 8 7 6 5
2 3 3 3 4 4 3 4 4 4 5 4 4 4 4 4 3 5 5 4 2 1 2 2 3 3 3 4 6 7 8 8 7 7 6 6 5 5
2 2 2 4 4 4 5 6 5 4 4 4 5 5 5 5 6 5 4 3 2 3 3 2 1 1 1 3 4 5 5 6 6 6 5 4 4 3
3 3 3 3 3 4 5 5 5 5 3 2 3 3 4 6 6 5 5 5 4 2 2 2 1 1 1 2 3 4 4 5 5 5 4 4 3 2
3 3 3 3 4 4 5 5 5 5 7 7 6 6 7 9 9 7 6 5 3 1 1 2 2 1 0 1 2 4 5 5 5 5 4 3 3 2
3 3 4 4 4 5 4 5 5 3 4 6 7 7 7 7 8 6 6 6 3 2 2 3 2 2 1 1 1 3 4 5 6 5 5 4 4 3
2 2 2 4 5 5 4 4 4 4 5 5 5 5 5 4 4 3 4 4 4 2 4 4 3 2 2 1 1 2 3 3 4 4 5 5 5 5
2 1 2 4 6 6 5 6 7 6 5 5 5 4 3 3 2 3 4 4 2 2 6 5 3 3 3 2 2 1 2 3 3 3 3 4 4 6
2 4 5 6 6 5 6 6 5 4 4 4 4 2 2 2 3 3 4 5 6 5 5 4 3 3 3 2 2 2 2 2 3 3 3 3 3 3
3 4 6 7 5 5 4 4 3 3 3 3 3 2 2 2 2 2 2 2 3 3 4 3 3 3 2 2 2 2 2 2 2 3 3 3 4 6
4 3 3 3 3 3 2 2 2 2 3 2 3 2 2 2 2 1 2 2 2 2 1 2 2 2 2 2 2 2 2 2 2 2 3 3 4 6
5 3 3 3 2 2 2 2 1 2 2 2 2 2 2 2 2 1 1 2 2 1 1 1 1 1 1 1 3 3 3 2 2 2 2 3 4 5
3 3 3 3 2 2 2 2 2 2 2 2 2 2 2 2 2 2 2 1 1 1 1 1 1 2 2 2 2 5 4 2 2 2 3 4 5 5
2 3 3 3 3 3 3 2 2 2 2 2 2 2 2 3 2 3 2 2 2 2 1 1 2 3 3 3 2 2 6 5 3 3 3 3 4 7
3 3 3 3 3 3 3 3 3 3 2 2 3 3 3 3 3 3 3 3 3 3 3 3 3 3 2 1 2 2 2 7 8 5 3 3 3 3
3 3 3 4 3 3 3 3 3 3 3 3 3 3 3 4 4 4 4 4 4 4 4 2 1 3 3 3 4 3 3 3 5 10 12 9 4 4
4 4 4 4 4 4 4 4 4 3 3 4 4 4 4 4 4 4 4 4 4 4 3 3 2 2 3 3 4 4 4 4 3 3 4 9 15 17
Wind_Direction
224 221 225 232 219 215 203 193 192 216 233 208 193 168 132 119 122 116 112 110 122 127 131 137 140 140 137 134 132 130 127 127 124 123 122 118 119 115
222 216 229 235 218 212 212 210 203 200 220 202 197 171 127 119 112 112 110 107 113 119 121 124 127 129 129 130 131 130 129 126 126 126 125 122 123 123
219 211 232 226 217 217 213 206 201 189 201 205 157 135 132 123 107 101 98 98 101 107 111 116 121 124 124 127 129 130 130 127 126 127 125 123 120 118
223 212 235 219 214 219 209 203 196 186 181 184 168 152 133 129 116 103 97 95 94 94 97 101 106 113 119 125 128 129 131 131 131 130 127 122 120 118
206 206 233 208 219 215 198 189 176 165 165 165 160 134 120 128 115 99 91 86 92 93 90 88 90 97 103 112 122 129 130 130 128 126 123 121 118 116
52 96 88 161 208 202 186 177 161 153 151 152 149 135 130 130 126 123 106 80 78 86 89 87 86 87 91 99 109 117 122 122 122 120 118 116 115 115
46 42 47 67 84 121 144 161 158 157 154 153 149 136 139 153 153 144 133 111 69 79 86 74 79 78 80 92 103 111 114 115 117 117 116 117 116 116
63 41 41 50 63 80 93 109 138 156 164 161 160 165 175 167 153 151 143 139 133 124 106 82 75 75 80 98 107 110 111 112 113 114 115 114 114 115
67 54 54 50 56 70 73 76 77 88 138 160 166 178 177 177 167 162 159 148 145 152 135 120 99 111 133 124 121 124 123 124 128 129 129 125 121 129
57 53 65 52 56 82 86 77 65 54 65 117 153 166 165 165 167 163 149 122 93 94 139 146 163 168 147 150 153 155 157 153 149 146 144 142 138 153
55 54 68 68 57 85 101 97 80 58 61 83 96 111 126 137 141 136 139 142 141 151 156 148 159 152 155 190 175 177 180 177 173 169 168 167 176 210
59 49 57 71 74 86 107 112 104 85 84 82 83 90 107 125 136 151 162 162 153 166 177 161 156 156 163 183 185 189 195 200 200 203 205 206 215 223
95 65 56 75 84 82 86 99 116 114 100 96 91 89 91 101 115 124 148 163 164 174 168 163 159 165 170 173 198 202 199 197 203 214 221 228 228 221
125 110 93 91 89 87 88 97 101 101 102 99 95 92 96 98 93 99 107 107 98 143 163 162 157 167 165 172 185 184 195 197 200 217 231 245 240 236
122 121 114 104 93 88 93 101 104 107 111 109 108 98 85 92 100 95 88 90 79 82 125 147 148 155 165 173 169 176 187 198 205 221 233 239 243 245
111 102 97 93 88 85 89 94 95 108 120 121 119 106 99 99 94 94 105 109 95 75 65 100 143 152 156 162 171 183 198 202 207 224 237 247 244 240
125 106 99 99 97 94 92 91 97 106 108 112 121 118 116 109 95 84 104 108 119 134 115 75 80 113 152 165 185 203 210 223 226 220 230 251 256 254
127 132 141 144 149 150 143 132 127 132 132 132 134 134 139 141 132 116 112 132 145 160 166 145 130 118 131 201 211 207 211 226 231 218 228 252 269 265
140 160 170 177 182 181 179 176 176 170 158 156 157 156 155 159 154 156 162 165 175 188 194 183 181 177 210 251 235 210 214 226 232 238 236 240 259 272
176 183 192 196 193 191 191 190 180 167 167 176 177 177 179 182 184 186 189 197 206 213 215 206 208 207 217 242 257 237 217 219 229 247 254 255 264 274
195 199 201 202 202 201 200 195 190 189 190 191 194 197 193 193 204 208 207 205 211 220 225 231 236 207 190 195 247 262 242 227 227 233 243 255 272 281
204 208 210 210 209 206 205 201 201 203 200 204 208 208 206 208 211 210 210 213 221 228 236 238 171 166 189 220 250 268 281 286 254 246 242 235 244 258
215 213 213 212 211 209 208 209 212 216 215 215 214 214 213 216 219 217 215 216 220 226 228 222 203 205 220 226 241 256 266 283 290 280 269 252 244 251
Height
1551 1551 1551 1551 1552 1552 1552 1552 1553 1552 1553 1553 1554 1555 1556 1556 1556 1557 1557 1557 1557 1558 1558 1559 1559 1560 1561 1561 1562 1563 1564 1565 1565 1566 1567 1567 1567 1567
1547 1547 1547 1548 1548 1548 1548 1548 1548 1549 1549 1549 1550 1551 1552 1553 1553 1553 1554 1554 1554 1555 1555 1556 1557 1558 1558 1559 1560 1560 1561 1562 1563 1563 1564 1564 1565 1565
1544 1543 1544 1544 1544 1544 1544 1544 1544 1545 1545 1546 1547 1548 1549 1549 1550 1550 1551 1551 1551 1552 1553 1554 1555 1555 1556 1556 1557 1558 1559 1560 1560 1561 1561 1562 1563 1563
1541 1541 1541 1541 1541 1541 1540 1540 1541 1541 1542 1542 1543 1544 1545 1546 1547 1547 1548 1548 1549 1550 1551 1551 1552 1553 1553 1554 1555 1556 1557 1557 1558 1558 1559 1560 1561 1561
1539 1538 1538 1538 1538 1537 1537 1537 1537 1538 1539 1539 1540 1541 1542 1543 1544 1545 1545 1546 1547 1548 1548 1549 1550 1551 1551 1552 1552 1553 1554 1555 1556 1556 1557 1558 1559 1560
1537 1537 1536 1536 1535 1535 1535 1535 1535 1535 1536 1536 1537 1538 1539 1540 1541 1542 1543 1544 1545 1546 1546 1547 1548 1549 1549 1550 1550 1551 1552 1553 1553 1554 1555 1556 1557 1558
1535 1535 1534 1534 1534 1533 1533 1533 1533 1533 1533 1533 1534 1535 1536 1537 1538 1540 1541 1542 1543 1544 1545 1546 1547 1547 1548 1548 1549 1550 1550 1551 1552 1552 1553 1554 1555 1556
1534 1534 1533 1533 1532 1532 1531 1531 1531 1531 1531 1531 1532 1533 1534 1535 1537 1538 1539 1540 1541 1544 1544 1545 1546 1547 1547 1548 1549 1549 1550 1550 1551 1552 1552 1553 1553 1554
1533 1532 1532 1531 1531 1531 1530 1529 1529 1529 1530 1530 1530 1531 1532 1533 1535 1536 1537 1539 1540 1542 1543 1544 1545 1546 1547 1548 1549 1549 1550 1550 1551 1551 1552 1552 1553 1553
1532 1531 1531 1530 1530 1530 1529 1529 1528 1528 1529 1529 1530 1530 1531 1532 1533 1535 1536 1537 1539 1541 1542 1543 1544 1546 1547 1547 1548 1549 1550 1550 1550 1551 1551 1551 1552 1552
1530 1530 1530 1530 1529 1529 1529 1528 1528 1528 1528 1529 1529 1529 1530 1531 1532 1534 1535 1536 1537 1539 1541 1542 1543 1544 1546 1547 1547 1548 1549 1549 1549 1550 1550 1550 1550 1551
1529 1529 1529 1529 1528 1528 1528 1528 1527 1528 1528 1528 1528 1529 1530 1531 1532 1533 1534 1535 1536 1538 1540 1541 1542 1543 1544 1545 1546 1547 1547 1548 1548 1549 1549 1549 1549 1549
1528 1528 1528 1528 1528 1528 1528 1527 1527 1528 1528 1528 1528 1529 1529 1530 1531 1532 1533 1535 1536 1537 1538 1539 1540 1541 1542 1543 1544 1545 1546 1546 1547 1547 1547 1548 1548 1548
1527 1527 1527 1527 1527 1527 1527 1527 1527 1527 1527 1528 1528 1528 1529 1530 1531 1532 1533 1534 1535 1536 1537 1538 1538 1539 1540 1541 1542 1543 1544 1544 1545 1545 1545 1546 1546 1546
1526 1526 1526 1526 1526 1526 1526 1526 1527 1527 1527 1527 1528 1528 1529 1530 1531 1531 1532 1533 1534 1535 1535 1536 1537 1538 1539 1539 1540 1541 1541 1542 1542 1543 1543 1543 1543 1543
1524 1524 1525 1525 1525 1525 1525 1526 1526 1526 1527 1527 1527 1528 1529 1530 1530 1531 1532 1532 1533 1534 1534 1535 1535 1537 1537 1538 1538 1539 1539 1540 1540 1540 1541 1540 1540 1540
1523 1523 1523 1523 1524 1524 1524 1525 1525 1526 1526 1527 1527 1528 1528 1529 1530 1531 1531 1532 1532 1533 1533 1534 1535 1535 1536 1537 1537 1537 1537 1538 1538 1538 1538 1538 1538 1537
1521 1521 1522 1522 1522 1523 1523 1523 1524 1524 1525 1526 1527 1527 1528 1529 1530 1530 1531 1531 1532 1532 1533 1533 1533 1534 1535 1535 1536 1536 1536 1536 1536 1536 1535 1535 1535 1535
1519 1519 1520 1520 1521 1521 1522 1522 1522 1523 1524 1525 1526 1526 1527 1528 1529 1529 1530 1531 1531 1531 1532 1532 1532 1533 1533 1533 1534 1534 1534 1534 1534 1534 1533 1533 1532 1532
1516 1517 1517 1518 1519 1519 1520 1520 1521 1522 1523 1523 1524 1525 1526 1527 1527 1528 1528 1529 1529 1530 1530 1531 1531 1531 1531 1532 1532 1532 1532 1532 1532 1532 1531 1530 1530 1529
1513 1514 1515 1516 1516 1517 1517 1518 1518 1519 1520 1521 1522 1523 1524 1525 1525 1526 1526 1527 1528 1528 1528 1529 1529 1530 1529 1530 1530 1529 1530 1530 1530 1529 1529 1528 1527 1526
1511 1511 1512 1513 1513 1514 1514 1515 1515 1516 1517 1518 1519 1520 1521 1522 1523 1523 1524 1525 1525 1526 1526 1527 1527 1527 1527 1527 1527 1527 1527 1527 1527 1526 1526 1525 1524 1523
1508 1508 1509 1510 1510 1510 1511 1511 1512 1513 1514 1515 1516 1517 1518 1519 1520 1521 1521 1522 1522 1523 1523 1523 1524 1524 1524 1524 1524 1524 1524 1524 1523 1523 1523 1522 1521 1521